Weather History for Dansville, NY

Change the Weather History Date:

Thursday, November 1, 2012

  Actual Average Record
Temperature  
Mean Temperature 45 °F -  
Max Temperature 48 °F 57 °F 78 °F (1971)
Min Temperature 42 °F 35 °F 21 °F (1975)
Degree Days  
Heating Degree Days 20    
Moisture  
Dew Point 39 °F    
Average Humidity 80    
Maximum Humidity 93    
Minimum Humidity 71    
Precipitation  
Precipitation 0.03 in - - ()
Sea Level Pressure  
Sea Level Pressure 29.55 in    
Wind  
Wind Speed 5 mph (WNW)    
Max Wind Speed 10 mph    
Max Gust Speed 16 mph    
Visibility 10 miles    
Events Rain    
Averages and records for this station are not official NWS values.
T = Trace of Precipitation, MM = Missing Value Source: NWS Daily Summary

Daily Weather History Graph

Daily Weather History Graph

Search for Another Location

Airport:

Trip Planner

Search our weather history database for the weather conditions in past years. The results will help you decide how hot, cold, wet, or windy it might be!

Date:

Astronomy

Nov. 01, 2012 Rise Set
Actual Time 7:45 AM EDT 6:03 PM EDT
Civil Twilight 7:15 AM EDT 6:32 PM EDT
Nautical Twilight 6:42 AM EDT 7:05 PM EDT
Astronomical Twilight 6:09 AM EDT 7:38 PM EDT
Moon 7:55 PM EDT (11/1) 10:18 AM EDT (11/1)
Length of Visible Light 11h 16m
Length of Day
10h 17m
Waning Gibbous, 93% of the Moon is Illuminated
Nov 1
Waning Gibbous
Nov 6
Last Quarter
Nov 13
New
Nov 20
First Quarter
Nov 28
Full

Hourly Weather History & Observations

Time (EDT) Temp. Windchill Dew Point Humidity Pressure Visibility Wind Dir Wind Speed Gust Speed Precip Events Conditions
12:18 AM 42.8 °F 38.0 °F 41.0 °F 93% 29.46 in 10.0 mi SE 8.1 mph - N/A   Overcast
12:54 AM 44.1 °F 40.8 °F 41.0 °F 89% 29.50 in 10.0 mi SSE 5.8 mph - 0.00 in Rain Light Rain
1:07 AM 44.6 °F - 41.0 °F 87% 29.46 in 10.0 mi Calm Calm - 0.00 in Rain Light Rain
1:39 AM 46.4 °F 44.3 °F 41.0 °F 81% 29.46 in 10.0 mi Variable 4.6 mph - 0.00 in   Overcast
1:54 AM 46.0 °F - 39.9 °F 79% 29.50 in 10.0 mi Calm Calm - 0.00 in   Overcast
2:54 AM 45.0 °F 43.5 °F 39.0 °F 80% 29.50 in 10.0 mi SSW 3.5 mph - N/A   Overcast
3:54 AM 45.0 °F 42.6 °F 39.0 °F 80% 29.50 in 10.0 mi South 4.6 mph - N/A   Overcast
4:54 AM 44.1 °F 40.8 °F 39.0 °F 82% 29.51 in 10.0 mi South 5.8 mph - 0.01 in   Overcast
5:54 AM 44.1 °F 40.8 °F 39.0 °F 82% 29.51 in 10.0 mi SE 5.8 mph - N/A   Overcast
6:54 AM 45.0 °F - 39.0 °F 80% 29.51 in 10.0 mi Calm Calm - N/A   Overcast
7:54 AM 45.0 °F 43.5 °F 39.9 °F 82% 29.52 in 10.0 mi NW 3.5 mph - N/A   Overcast
8:54 AM 45.0 °F - 41.0 °F 86% 29.55 in 10.0 mi Calm Calm - 0.00 in   Overcast
11:54 AM 46.9 °F - 37.9 °F 71% 29.58 in 10.0 mi Variable 4.6 mph 16.1 mph 0.00 in   Overcast
12:54 PM 46.0 °F 41.9 °F 41.0 °F 83% 29.57 in 10.0 mi North 8.1 mph - 0.00 in Rain Light Rain
1:46 PM 48.2 °F - 41.0 °F 76% 29.53 in 10.0 mi NW 9.2 mph - 0.00 in   Overcast
2:06 PM 48.2 °F - 39.2 °F 71% 29.53 in 10.0 mi Variable 3.5 mph - 0.00 in   Overcast
2:24 PM 46.4 °F 41.5 °F 41.0 °F 81% 29.53 in 10.0 mi NW 10.4 mph - 0.00 in   Overcast
2:47 PM 46.4 °F 42.9 °F 42.8 °F 87% 29.53 in 10.0 mi NNW 6.9 mph - 0.00 in Rain Light Rain
2:54 PM 46.9 °F - 42.1 °F 83% 29.57 in 10.0 mi North 6.9 mph - 0.00 in   Overcast
3:54 PM 46.9 °F - 39.0 °F 74% 29.58 in 10.0 mi Variable 5.8 mph - N/A   Overcast
4:20 PM 46.4 °F 42.4 °F 37.4 °F 71% 29.55 in 10.0 mi WNW 8.1 mph - N/A   Overcast
4:54 PM 46.9 °F - 37.9 °F 71% 29.59 in 10.0 mi WNW 8.1 mph - N/A   Overcast
5:54 PM 46.0 °F 43.9 °F 37.0 °F 71% 29.60 in 10.0 mi West 4.6 mph - N/A   Overcast
6:26 PM 46.4 °F 42.4 °F 37.4 °F 71% 29.58 in 10.0 mi NW 8.1 mph - 0.00 in Rain Light Rain
7:20 PM 44.6 °F 41.4 °F 39.2 °F 81% 29.60 in 10.0 mi WNW 5.8 mph - 0.02 in Rain Light Rain
7:54 PM 44.1 °F 40.8 °F 39.9 °F 85% 29.64 in 10.0 mi West 5.8 mph - 0.02 in   Overcast
8:01 PM 44.6 °F 43.1 °F 39.2 °F 81% 29.61 in 10.0 mi WNW 3.5 mph - N/A   Overcast
8:54 PM 44.1 °F 42.5 °F 39.0 °F 82% 29.65 in 10.0 mi Variable 3.5 mph - 0.00 in   Overcast
9:54 PM 44.1 °F 40.8 °F 37.9 °F 79% 29.65 in 10.0 mi WNW 5.8 mph - N/A   Overcast
10:54 PM 44.1 °F 42.5 °F 37.0 °F 76% 29.66 in 10.0 mi West 3.5 mph - N/A   Overcast
11:54 PM 44.1 °F 40.8 °F 35.1 °F 71% 29.66 in 10.0 mi Variable 5.8 mph - N/A   Overcast